Tracking 17145 objects as of 23-May-2015
HD Live streaming from Space Station

EUTE HOT BIRD 13A (HB 6)

Track EUTE HOT BIRD 13A (HB 6) now!
EUTE HOT BIRD 13A (HB 6) is classified as:


NORAD ID: 27499
Int'l Code: 2002-038A
Perigee: 35,778.5 km
Apogee: 35,808.5 km
Inclination: 0.0 °
Period: 1,436.1 minutes
Semi major axis: 42164 km
RCS: 15.0118 m2 (large)
Launch date: August 21, 2002
Source: European Telecommunications Satellite Organization (EUTE)

Cable programming; direct-to-home broadcasting; 28 Ku-band, 4 Ka-band transponders
Your satellite tracking list
Your tracking list is empty





NASA's NSSDC Master Catalog

Two Line Element Set (TLE):
1 27499U 02038A   15143.08219698 -.00000077  00000-0  00000+0 0  9995
2 27499 000.0474 008.1978 0003558 047.0082 207.2391 01.00272708 46677

Source of the keplerian elements: AFSPC

N2YO: 320